Terminal Aerodrome Forecast
Issued by NWS Miami, FL

Home | Current Version | Previous Version | Text Only | Print | Product List | Glossary On
Versions: 1 2 3 4 5 6 7 8 9 10 11 12 13 14 15 16 17 18 19 20 21 22 23 24 25 26
000
FTUS42 KMFL 280537
TAFAPF
TAF
KAPF 280537Z 2806/2906 VRB05G15KT 2SM SHRA FEW005 BKN035 BKN060
     FM280630 VRB05KT P6SM VCSH SCT018 SCT060 BKN250
      TEMPO 2807/2809 VRB10G15KT 4SM SHRA SCT018 BKN035
     FM281600 26008KT P6SM VCTS SCT030CB BKN060=

USA.gov is the U.S. government's official web portal to all federal, state and local government web resources and services.